Stations météo

réclame
Mon MeteoGroup
Chieming, Allemagne (10982): Température de l'air & dewpoint: 19.06.2018 15:00:00 - 25.06.2018 15:00:00 (CEST)Chieming, Allemagne (10982): Température de l'air 5cm & Température de l'air -5cm: 19.06.2018 15:00:00 - 25.06.2018 15:00:00 (CEST)Chieming, Allemagne (10982): Température de l'air -20cm & Température de l'air -100cm: 19.06.2018 15:00:00 - 25.06.2018 15:00:00 (CEST)Chieming, Allemagne (10982): Vitesse du vent & gusts: 19.06.2018 15:00:00 - 25.06.2018 15:00:00 (CEST)Chieming, Allemagne (10982): Direction du vent: 19.06.2018 15:00:00 - 25.06.2018 15:00:00 (CEST)Chieming, Allemagne (10982): reduced air pressure: 19.06.2018 15:00:00 - 25.06.2018 15:00:00 (CEST)Chieming, Allemagne (10982): visibility: 19.06.2018 15:00:00 - 25.06.2018 15:00:00 (CEST)Chieming, Allemagne (10982): Ensoleillement: 19.06.2018 15:00:00 - 25.06.2018 15:00:00 (CEST)Chieming, Allemagne (10982): Quantités de précipitations: 19.06.2018 15:00:00 - 25.06.2018 15:00:00 (CEST)
Date & Time tt [°C] td [°C] tt 5cm [°C] tt -5cm [°C] tt -20cm [°C] tt -100cm [°C] ff [km/h] ff [knt] fx [km/h] fx [knt] dd ppp [hPa] vv [km] sd [min] rr [mm]
25.06.2018 15:00:00 14,6 9,8 17,4 16,8 17,2 17,8 8 5 16 8 W 1022,7 21 0 0,0
25.06.2018 14:00:00 13,9 11,1 15,6 16,2 17,1 17,8 10 5 18 10 S 1022,8 15 0 0,0
25.06.2018 13:00:00 13,3 11,3 14,6 16,2 17,1 17,8 9 5 16 9 SSW 1022,7 12 0 0,0
25.06.2018 12:00:00 12,8 10,6 14,1 16,2 17,0 17,8 10 5 16 8 SSW 1022,4 17 0 0,0
25.06.2018 11:00:00 12,3 10,1 12,7 15,7 17,0 17,8 5 3 13 7 WNW 1022,1 9 0 0,1
25.06.2018 10:00:00 12,8 9,8 17,0 15,5 17,0 17,8 8 5 14 8 NW 1021,5 17 0 0,0
25.06.2018 09:00:00 11,6 9,5 12,8 14,7 17,1 17,8 7 4 16 8 NNW 1021,7 18 0 0,0
25.06.2018 08:00:00 10,8 10,3 11,2 14,1 17,3 17,8 10 5 25 14 N 1021,3 9 0 0,6
25.06.2018 07:00:00 11,7 10,9 11,5 14,1 17,6 17,8 12 7 24 13 W 1020,5 9 0 1,7
25.06.2018 06:00:00 11,5 10,7 11,2 14,4 17,9 17,8 15 8 25 13 W 1020,3 5 0 1,2
25.06.2018 05:00:00 12,0 10,2 11,3 14,8 18,1 17,9 13 7 20 11 W 1019,8 11 0 1,3
25.06.2018 04:00:00 12,0 10,9 11,7 15,2 18,4 17,9 3 2 8 5 SW 1019,8 6 0 0,4
25.06.2018 03:00:00 11,8 10,9 11,3 15,3 18,7 17,9 7 4 24 13 NE 1019,7 8 0 1,7
25.06.2018 02:00:00 12,5 11,2 11,9 15,8 19,0 17,9 10 6 16 9 S 1019,1 13 0 0,2
25.06.2018 01:00:00 12,9 11,1 11,9 16,4 19,3 17,9 10 5 16 9 S 1019,3 15 0 0,1
25.06.2018 00:00:00 13,4 11,3 12,5 17,1 19,6 17,9 12 6 16 9 S 1019,3 17 0 0,1
24.06.2018 23:00:00 14,8 9,8 13,1 17,9 19,9 17,9 2 1 7 4 ENE 1018,8 20 0 0,0
24.06.2018 22:00:00 15,3 9,3 13,9 18,4 20,1 17,9 5 3 12 6 NE 1018,8 17 0 0,0
24.06.2018 21:00:00 16,1 8,8 14,6 19,3 20,3 17,9 8 4 11 6 N 1018,4 19 0 0,0
24.06.2018 20:00:00 16,8 10,5 16,2 20,2 20,4 17,9 3 2 15 8 NNE 1018,0 20 10 0,0
24.06.2018 19:00:00 17,8 7,6 18,8 21,1 20,3 18,0 8 4 15 8 NNW 1017,9 18 39 0,0
24.06.2018 18:00:00 17,4 7,7 18,8 21,9 20,1 18,0 10 5 18 10 N 1018,4 27 15 0,0
24.06.2018 17:00:00 17,6 9,6 20,5 22,4 19,7 18,0 8 5 14 8 W 1018,6 16 20 0,0
24.06.2018 16:00:00 17,7 9,2 22,9 23,0 19,2 18,0 10 5 15 8 WSW 1018,8 16 50 0,0
24.06.2018 15:00:00 17,7 9,8 24,6 22,0 18,8 18,0 8 4 13 7 W 1019,1 20 11 0,0
24.06.2018 14:00:00 16,2 7,4 21,0 21,2 18,4 18,0 5 3 14 8 WSW 1020,0 18 12 0,0
24.06.2018 13:00:00 15,6 7,7 21,7 20,1 18,0 18,0 11 6 15 8 WNW 1020,8 14 2 0,0
24.06.2018 12:00:00 15,2 7,7 21,9 19,8 17,6 18,0 6 4 13 7 W 1021,2 15 13 0,0
24.06.2018 11:00:00 14,7 7,7 20,6 18,9 17,2 18,0 8 4 16 8 W 1021,3 17 20 0,0
24.06.2018 10:00:00 13,7 9,1 20,8 17,3 17,0 18,0 8 4 13 7 WSW 1021,6 12 41 0,0
24.06.2018 09:00:00 12,9 11,0 16,3 15,0 17,1 18,0 8 4 11 6 SSW 1021,9 16 4 0,0
24.06.2018 08:00:00 10,7 10,1 11,0 14,1 17,2 18,1 8 4 9 5 S 1022,6 11 0 0,0
24.06.2018 07:00:00 10,3 9,7 10,4 14,0 17,5 18,1 4 2 10 5 ESE 1022,6 10 0 0,0
24.06.2018 06:00:00 9,9 9,5 9,9 14,0 17,7 18,1 5 3 14 8 E 1022,7 12 0 0,0
24.06.2018 05:00:00 10,0 9,8 10,2 14,4 18,0 18,1 9 5 12 6 S 1022,7 8 0 0,4
24.06.2018 04:00:00 10,0 9,7 10,3 14,9 18,3 18,1 4 2 9 5 E 1023,4 3,6 0 0,7
24.06.2018 03:00:00 10,1 9,9 10,3 15,3 18,6 18,1 7 4 10 5 E 1023,8 7 0 1,6
24.06.2018 02:00:00 11,0 9,9 10,8 15,8 18,9 18,1 5 3 9 5 ENE 1024,0 6 0 0,3
24.06.2018 01:00:00 11,5 10,0 11,0 16,2 19,1 18,1 5 3 23 12 ENE 1024,0 11 0 0,6
24.06.2018 00:00:00 12,8 9,0 11,7 16,8 19,4 18,2 4 2 22 12 SW 1023,5 6 0 0,0
23.06.2018 23:00:00 13,4 8,1 12,5 17,3 19,7 18,2 14 7 23 13 SSW 1023,2 19 0 0,0
23.06.2018 22:00:00 14,3 7,9 13,6 18,0 20,0 18,2 13 7 29 16 WSW 1022,7 22 0 0,0
23.06.2018 21:00:00 15,2 6,1 13,9 18,7 20,3 18,2 15 8 24 13 WNW 1022,2 23 0 0,0
23.06.2018 20:00:00 15,3 6,4 14,5 19,6 20,4 18,2 10 6 22 12 NNW 1021,9 22 0 0,0
23.06.2018 19:00:00 15,7 6,7 15,5 20,7 20,5 18,3 12 7 26 14 NNW 1021,8 25 0 0,0
23.06.2018 18:00:00 16,5 6,5 17,7 22,1 20,3 18,3 18 10 29 16 NW 1021,7 29 0 0,0
23.06.2018 17:00:00 16,7 5,8 18,7 23,4 19,8 18,3 18 10 28 15 WNW 1021,7 22 15 0,0
23.06.2018 16:00:00 17,0 7,1 22,2 23,9 19,2 18,3 13 7 31 17 WNW 1021,8 21 40 0,0
23.06.2018 15:00:00 17,6 7,5 25,3 22,4 18,7 18,3 19 11 27 14 W 1022,2 15 8 0,0
23.06.2018 14:00:00 16,1 5,3 22,2 21,9 18,1 18,3 16 9 29 16 WNW 1022,8 21 21 0,0
23.06.2018 13:00:00 15,7 6,5 21,2 21,0 17,5 18,4 16 9 26 14 W 1023,3 24 22 0,0
23.06.2018 12:00:00 15,5 7,4 23,8 20,1 16,9 18,4 14 8 28 15 W 1023,7 23 38 0,0
23.06.2018 11:00:00 13,6 6,4 18,7 18,0 16,5 18,4 12 7 25 14 W 1024,6 22 33 0,0
23.06.2018 10:00:00 13,0 6,7 18,7 16,7 16,3 18,4 13 7 21 12 W 1024,9 17 47 0,0
23.06.2018 09:00:00 12,1 6,2 14,7 14,6 16,2 18,4 11 6 18 10 W 1025,3 20 28 0,0
23.06.2018 08:00:00 11,6 5,9 12,8 13,3 16,3 18,4 11 6 18 10 W 1025,5 25 0 0,0
23.06.2018 07:00:00 11,5 6,3 11,9 12,7 16,5 18,4 10 5 23 12 WNW 1025,4 20 0 0,0
23.06.2018 06:00:00 11,0 6,2 9,6 12,5 16,7 18,4 12 7 23 13 NW 1025,3 24 0 0,0
23.06.2018 05:00:00 11,7 5,6 9,5 12,7 16,9 18,4 17 9 24 13 WNW 1025,0 28 0 0,0
23.06.2018 04:00:00 11,8 5,8 9,9 12,9 17,1 18,4 14 7 25 14 W 1025,3 24 0 0,0
23.06.2018 03:00:00 12,4 5,9 10,5 13,0 17,4 18,4 16 8 28 15 W 1025,3 21 0 0,0
23.06.2018 02:00:00 12,6 5,9 10,0 13,2 17,7 18,4 18 10 31 17 WNW 1025,5 26 0 0,0
23.06.2018 01:00:00 12,6 5,2 10,2 13,5 18,0 18,4 18 10 28 15 WNW 1025,7 28 0 0,0
23.06.2018 00:00:00 13,3 4,3 11,0 14,1 18,4 18,4 13 7 23 12 W 1025,4 22 0 0,0
22.06.2018 23:00:00 13,0 4,5 10,1 14,3 18,7 18,4 12 6 26 14 WNW 1025,5 26 0 0,0
22.06.2018 22:00:00 13,2 4,8 9,9 14,9 19,0 18,5 11 6 21 11 WNW 1025,1 34 1 0,0
22.06.2018 21:00:00 13,6 3,6 11,6 15,8 19,2 18,4 15 8 40 22 NW 1024,4 29 35 0,0
22.06.2018 20:00:00 15,1 3,6 14,5 16,4 19,3 18,4 24 13 44 24 WNW 1023,4 15 48 0,0
22.06.2018 19:00:00 14,8 5,3 14,5 16,7 19,4 18,4 25 14 45 24 NW 1022,9 24 23 0,0
22.06.2018 18:00:00 15,0 5,8 15,7 17,0 19,6 18,4 29 16 45 24 WNW 1022,6 29 16 0,0
22.06.2018 17:00:00 15,0 5,2 16,3 16,8 19,8 18,4 24 13 39 21 WNW 1022,4 18 3 0,0
22.06.2018 16:00:00 14,0 4,3 13,3 16,8 20,1 18,4 27 14 48 26 WNW 1022,4 26 0 0,0
22.06.2018 15:00:00 14,8 4,7 15,2 18,4 20,1 18,4 27 14 44 24 WNW 1021,8 17 2 0,0
22.06.2018 14:00:00 15,3 3,7 18,5 19,0 20,0 18,4 30 16 48 26 WNW 1021,6 14 12 0,0
22.06.2018 13:00:00 16,1 6,9 23,7 20,3 19,8 18,4 23 12 43 23 W 1021,5 15 41 0,0
22.06.2018 12:00:00 14,5 6,5 18,7 19,9 19,6 18,4 23 12 39 21 W 1022,1 15 45 0,0
22.06.2018 11:00:00 13,7 6,7 20,2 18,8 19,4 18,3 18 10 32 18 W 1022,0 13 49 0,0
22.06.2018 10:00:00 13,2 6,2 18,7 17,7 19,4 18,3 21 11 32 18 W 1021,7 12 57 0,0
22.06.2018 09:00:00 12,6 5,4 17,0 15,9 19,6 18,3 18 10 27 15 WNW 1021,8 14 57 0,0
22.06.2018 08:00:00 12,3 4,0 15,3 15,0 20,0 18,3 16 9 24 13 WNW 1022,4 13 42 0,0
22.06.2018 07:00:00 12,0 3,0 11,3 14,7 20,6 18,3 13 7 29 15 WNW 1022,5 29 1 0,0
22.06.2018 06:00:00 12,6 5,2 10,8 15,2 21,1 18,3 19 11 32 17 W 1022,3 32 0 0,0
22.06.2018 05:00:00 13,4 4,5 11,9 15,9 21,7 18,2 24 13 41 22 WNW 1021,7 31 0 0,0
22.06.2018 04:00:00 14,6 5,9 12,6 17,0 22,3 18,2 27 15 39 21 WNW 1020,2 22 0 0,0
22.06.2018 03:00:00 15,3 10,6 13,4 18,2 22,9 18,2 16 9 33 18 W 1019,4 18 0 0,0
22.06.2018 02:00:00 15,8 10,1 13,2 19,1 23,5 18,2 14 7 40 22 W 1018,9 21 0 0,7
22.06.2018 01:00:00 16,4 12,3 14,6 20,3 24,0 18,2 20 11 30 16 WNW 1018,2 10 0 0,2
22.06.2018 00:00:00 16,1 15,8 16,2 21,1 24,6 18,2 13 7 19 11 S 1017,1 9 0 3,2
21.06.2018 23:00:00 17,0 15,5 16,5 22,6 25,0 18,2 4 2 42 23 NE 1016,7 7 0 2,1
21.06.2018 22:00:00 19,6 13,0 18,5 24,3 25,4 18,2 11 6 18 10 SSW 1015,2 22 0 0,0
21.06.2018 21:00:00 21,9 11,9 20,3 25,3 25,7 18,1 11 6 21 12 WSW 1014,3 26 0 0,0
21.06.2018 20:00:00 22,2 12,2 20,9 26,4 26,0 18,1 14 8 36 20 WNW 1013,7 19 4 0,0
21.06.2018 19:00:00 23,2 13,2 22,8 28,0 26,0 18,1 18 10 39 21 NW 1012,9 16 38 0,0
21.06.2018 18:00:00 23,8 15,7 26,7 29,0 25,9 18,1 25 14 39 21 WNW 1012,0 12 13 0,0
21.06.2018 17:00:00 25,8 15,5 26,9 30,8 25,5 18,1 26 14 42 23 WNW 1011,2 12 51 0,0
21.06.2018 16:00:00 27,0 17,1 30,1 31,2 24,9 18,1 21 11 47 25 WNW 1010,7 14 49 0,0
21.06.2018 15:00:00 26,6 15,8 34,7 30,7 24,3 18,1 10 5 17 9 W 1011,3 15 42 0,0
21.06.2018 14:00:00 23,9 13,2 24,0 29,9 23,6 18,1 16 9 61 33 NW 1012,6 21 39 0,0
21.06.2018 13:00:00 26,6 17,7 31,1 29,7 22,8 18,0 16 9 24 13 W 1012,2 17 45 0,0
21.06.2018 12:00:00 25,7 16,7 32,3 28,3 22,1 18,0 8 4 16 8 WSW 1013,1 16 52 0,0
21.06.2018 11:00:00 24,6 15,7 31,5 26,5 21,5 18,0 9 5 13 7 WSW 1013,6 17 60 0,0
21.06.2018 10:00:00 22,9 16,2 29,9 23,6 21,2 18,0 6 3 10 5 W 1014,6 16 60 0,0
21.06.2018 09:00:00 21,8 17,0 25,5 21,5 21,1 18,0 8 5 13 7 S 1015,0 8 60 0,0
21.06.2018 08:00:00 19,5 15,4 21,9 19,6 21,2 18,0 6 4 10 5 SSW 1015,9 19 60 0,0
21.06.2018 07:00:00 17,5 14,8 17,3 18,5 21,6 17,9 4 2 5 3 NE 1016,1 14 60 0,0
21.06.2018 06:00:00 15,7 13,2 13,4 18,5 22,0 17,9 3 2 14 8 S 1016,7 20 6 0,0
21.06.2018 05:00:00 13,9 13,1 12,6 18,9 22,4 17,9 5 3 8 4 E 1017,4 11 0 0,0
21.06.2018 04:00:00 15,0 14,0 13,1 19,5 22,8 17,9 5 3 8 4 SE 1017,5 17 0 0,0
21.06.2018 03:00:00 15,8 13,9 13,6 20,1 23,3 17,9 4 2 8 4 S 1017,8 17 0 0,0
21.06.2018 02:00:00 16,8 14,7 13,8 20,9 23,8 17,9 2 1 5 3 SE 1018,0 20 0 0,0
21.06.2018 01:00:00 17,2 14,8 14,7 21,6 24,3 17,9 4 2 8 5 ESE 1018,2 20 0 0,0
21.06.2018 00:00:00 17,8 14,9 15,4 22,6 24,7 17,9 5 3 10 5 E 1018,4 22 0 0,0
20.06.2018 23:00:00 19,1 14,8 16,0 23,8 25,2 17,9 4 2 7 4 ESE 1018,2 21 0 0,0
20.06.2018 22:00:00 20,9 15,8 17,2 25,2 25,5 17,9 6 4 8 5 NE 1017,7 20 0 0,0
20.06.2018 21:00:00 23,5 14,7 19,8 26,9 25,7 17,9 6 3 10 5 ENE 1016,8 15 40 0,0
20.06.2018 20:00:00 24,8 14,5 23,8 28,3 25,6 17,9 9 5 14 8 ENE 1016,5 21 60 0,0
20.06.2018 19:00:00 26,9 13,3 26,6 29,6 25,4 17,9 4 2 12 6 E 1016,4 21 60 0,0
20.06.2018 18:00:00 26,9 15,4 28,8 30,5 24,9 17,9 5 3 14 8 WSW 1016,5 24 60 0,0
20.06.2018 17:00:00 26,6 12,9 30,1 31,0 24,2 17,9 7 4 22 12 NNE 1017,1 21 59 0,0
20.06.2018 16:00:00 26,2 15,0 31,1 30,9 23,4 17,9 9 5 18 10 E 1017,6 24 59 0,0
20.06.2018 15:00:00 25,3 13,6 30,5 30,2 22,5 17,9 14 8 23 13 N 1018,2 13 60 0,0
20.06.2018 14:00:00 25,3 15,5 30,8 28,9 21,7 17,9 15 8 24 13 NE 1018,7 19 60 0,0
20.06.2018 13:00:00 24,6 13,4 29,4 27,2 20,9 17,9 16 8 31 17 NE 1019,5 25 60 0,0
20.06.2018 12:00:00 23,8 14,1 28,4 25,3 20,3 17,9 17 9 27 15 ENE 1020,0 19 60 0,0
20.06.2018 11:00:00 22,9 14,2 26,8 23,7 19,8 17,8 18 10 28 15 ENE 1020,5 18 60 0,0
20.06.2018 10:00:00 22,4 15,4 26,3 22,0 19,4 17,8 13 7 19 11 ENE 1020,9 22 60 0,0
20.06.2018 09:00:00 21,0 14,5 25,1 20,0 19,2 17,8 5 3 9 5 NE 1021,7 26 60 0,0
20.06.2018 08:00:00 19,1 14,1 22,0 17,7 19,3 17,8 5 3 7 4 NE 1022,2 16 60 0,0
20.06.2018 07:00:00 16,2 13,9 15,8 16,5 19,5 17,8 5 3 8 5 ENE 1022,8 15 60 0,0
20.06.2018 06:00:00 13,3 12,5 12,3 16,4 19,9 17,8 6 4 9 5 E 1023,8 15 7 0,0
20.06.2018 05:00:00 13,2 12,5 11,6 16,7 20,2 17,8 8 4 8 5 E 1023,8 18 0 0,0
20.06.2018 04:00:00 14,8 13,1 12,4 17,3 20,6 17,8 6 4 8 4 ESE 1023,5 22 0 0,0
20.06.2018 03:00:00 15,2 13,2 12,5 17,9 21,0 17,8 4 2 10 5 NE 1023,6 15 0 0,0
20.06.2018 02:00:00 15,5 13,2 13,2 18,6 21,3 17,8 8 4 9 5 E 1023,9 19 0 0,0
20.06.2018 01:00:00 17,2 13,8 15,0 19,4 21,7 17,8 5 3 7 4 E 1023,6 17 0 0,0
20.06.2018 00:00:00 17,7 14,5 16,8 19,8 22,1 17,8 3 1 16 8 SSW 1023,8 23 0 0,0
19.06.2018 23:00:00 17,4 14,0 14,9 20,3 22,5 17,8 8 4 11 6 E 1023,9 24 0 0,0
19.06.2018 22:00:00 17,2 14,5 15,3 21,4 22,8 17,8 7 4 9 5 E 1023,8 22 0 0,0
19.06.2018 21:00:00 20,6 15,1 18,0 22,8 23,0 17,8 3 1 8 4 ENE 1022,4 22 20 0,0
19.06.2018 20:00:00 22,6 12,5 21,7 23,8 23,1 17,9 6 3 11 6 W 1022,0 20 59 0,0
19.06.2018 19:00:00 22,9 13,7 23,2 24,7 23,1 17,9 5 3 19 10 N 1022,0 22 33 0,0
19.06.2018 18:00:00 22,6 13,1 23,0 26,1 22,8 17,9 7 4 19 10 WNW 1022,2 22 47 0,0
19.06.2018 17:00:00 23,4 13,8 27,5 27,4 22,3 17,9 7 4 16 9 W 1022,2 18 60 0,0
19.06.2018 16:00:00 22,7 12,8 28,6 27,5 21,8 17,9 9 5 15 8 W 1022,6 25 46 0,0
19.06.2018 15:00:00 21,9 12,6 26,8 27,5 21,1 17,9 10 5 15 8 WNW 1023,2 13 46 0,0

tt = Température de l'air
td = dewpoint
tt 5cm = Température de l'air 5cm
tt -5cm = Température de l'air -5cm
tt -20cm = Température de l'air -20cm
tt -100cm = Température de l'air -100cm
ff = Vitesse du vent
fx = gusts
dd = Direction du vent
ppp = reduced air pressure
vv = visibility
sd = Ensoleillement
rr = Quantités de précipitations

stations d'obs. à proximité